• MPC Preparation (Info)

  • MPEC 2019-T157 : S/2004 S 35

    The following Minor Planet Electronic Circular may be linked-to from your own Web pages, but must not otherwise be redistributed electronically.

    A form allowing access to any MPEC is at the bottom of this page.


    Read MPEC 2019-T156 Read MPEC 2019-T158


    M.P.E.C. 2019-T157                              Issued 2019 October 8, 17:48 UT
    
         The Minor Planet Electronic Circulars contain information on unusual
             minor planets and routine data on comets.  They are published
        on behalf of Division F of the International Astronomical Union by the
              Minor Planet Center, Smithsonian Astrophysical Observatory,
                              Cambridge, MA 02138, U.S.A.
    
                 Prepared using the Tamkin Foundation Computer Network
    
                                  MPC@CFA.HARVARD.EDU
                URL https://www.minorplanetcenter.net/    ISSN 1523-6714
    
                                   S/2004 S 35                               
    
    
    Observations:
        SK04S350* C2004 12 12.39171 07 48 53.421+21 00 11.43         24.9 RcET157568
        SK04S350  C2004 12 13.48734 07 48 37.160+21 01 01.35         24.9 RcET157568
        SK04S350  C2004 12 14.59613 07 48 20.278+21 01 52.84         24.7 RcET157568
        SK04S350  C2004 12 14.62035 07 48 19.902+21 01 53.94         24.6 RcET157568
        SK04S350  C2005 01 05.60252 07 41 40.685+21 21 16.56         24.5 RcET157568
        SK04S350  C2005 01 05.62486 07 41 40.233+21 21 17.94         24.3 RcET157568
        SK04S350  C2006 01 05.58778 08 51 56.769+18 20 10.41               cET157568
        SK04S350  C2006 01 05.64439 08 51 55.837+18 20 14.75               cET157568
        SK04S350  C2006 01 06.55010 08 51 40.899+18 21 22.97         24.7 RcET157568
        SK04S350  C2006 01 06.56223 08 51 40.692+18 21 23.93         24.5 RcET157568
        SK04S350  C2006 02 01.28282 08 43 40.054+18 56 05.31               cET157568
        SK04S350  C2006 02 01.30818 08 43 39.483+18 56 07.27               cET157568
        SK04S350  C2006 02 02.28072 08 43 20.549+18 57 26.43         24.6 RcET157568
        SK04S350  C2006 02 02.30384 08 43 20.119+18 57 27.60         24.7 RcET157568
        SK04S350  C2006 02 25.38904 08 36 25.115+19 25 09.41         24.5  cET157568
        SK04S350  C2006 02 25.39704 08 36 25.003+19 25 09.91               cET157568
    
    Observer details:
    568 Mauna Kea.  Observers S. S. Sheppard, D. C. Jewitt, J. Kleyna.  Measurers 
       S. S. Sheppard, B. Marsden.  8.2-m reflector + CCD, 8.1-m reflector + CCD.
    
    Orbital elements:
    S/2004 S 35
    Epoch 2019 Apr. 27.0 TT = JDT 2458600.5                 Williams
    M 220.63976              (2000.0)            P               Q
    n   0.28738249     Peri.  203.73825     -0.62960596     +0.77647171
    a   0.1498167      Node   332.73700     +0.72166059     +0.59699978
    e   0.1836859      Incl.  176.71738     +0.28775392     +0.20170015
    P   3.43           H   15.5           P/d  1252.69
    From 16 observations 2004 Dec. 12-2006 Feb. 25, mean residual 0".22.
    
    Residuals in seconds of arc
    041212 568  0.1-  0.1-    060105 568  0.1+  0.1-    060202 568  0.1-  0.4+
    041213 568  0.0   0.2-    060105 568  0.3+  0.0     060202 568  0.3+  0.3-
    041214 568  0.0   0.1-    060106 568  0.1-  0.0     060225 568  0.0   0.0
    041214 568  0.0   0.2-    060106 568  0.1-  0.1+    060225 568  0.2+  0.0
    050105 568  0.0   0.2+    060201 568  0.2+  0.0
    050105 568  0.1+  0.4+    060201 568  0.8-  0.1-
    
    
    A. U. Tomatic                (C) Copyright 2019 MPC           M.P.E.C. 2019-T157
    


    Read MPEC 2019-T156 Read MPEC 2019-T158


    MPEC number:

    Enter an MPEC number in one of the following forms:

    • 1997-B01 (the full form)
    • J97B01 (the packed version of the full form)
    • B01 (the abbreviated form)